Weather History for Alexandria, Egypt

Change the Weather History Date:

Tuesday, May 14, 2013

  Actual Average Record
Temperature  
Mean Temperature 67 °F -  
Max Temperature 76 °F 79 °F 96 °F (2008)
Min Temperature 58 °F 65 °F 53 °F (2000)
Cooling Degree Days 2    
Growing Degree Days 17 (Base 50)    
Moisture  
Dew Point 58 °F    
Average Humidity 66    
Maximum Humidity 88    
Minimum Humidity 44    
Precipitation  
Precipitation 0.00 in 0.00 in - ()
Sea Level Pressure  
Sea Level Pressure 29.83 in    
Wind  
Wind Speed 10 mph ()    
Max Wind Speed 20 mph    
Max Gust Speed -    
Visibility 6.2 miles    
Events      
Averages and records for this station are not official NWS values.
T = Trace of Precipitation, MM = Missing Value Source: Averaged Metar Reports

Daily Weather History Graph

Daily Weather History Graph

Search for Another Location

Airport:

Trip Planner

Search our weather history database for the weather conditions in past years. The results will help you decide how hot, cold, wet, or windy it might be!

Date:

Astronomy

May. 14, 2013 Rise Set
Actual Time 5:05 AM EET 6:48 PM EET
Civil Twilight 4:38 AM EET 7:14 PM EET
Nautical Twilight 4:06 AM EET 7:46 PM EET
Astronomical Twilight 3:33 AM EET 8:20 PM EET
Moon 8:26 AM EET (5/14) 10:24 PM EET (5/14)
Length of Visible Light 14h 36m
Length of Day
13h 43m
Waxing Crescent, 17% of the Moon is Illuminated
May 14
Waxing Crescent
May 18
First Quarter
May 25
Full
May 31
Last Quarter
Jun 8
New

Hourly Weather History & Observations

Time (EET) Temp. Dew Point Humidity Pressure Visibility Wind Dir Wind Speed Gust Speed Precip Events Conditions
12:00 AM 68.0 °F 57.2 °F 68% 29.83 in 6.2 mi WNW 15.0 mph - N/A   Partly Cloudy
2:00 AM 66 °F 56 °F 63% 29.81 in 6 mi NW 6.9 mph - -  
2:00 AM 66.2 °F 57.2 °F 73% 29.80 in - NW 6.9 mph - N/A   Clear
3:00 AM 66.2 °F 57.2 °F 73% 29.80 in - WNW 5.8 mph - N/A   Clear
4:00 AM 59.0 °F 55.4 °F 88% 29.80 in - South 5.8 mph - N/A   Clear
5:00 AM 59.0 °F 55.4 °F 88% 29.80 in - South 1.2 mph - N/A   Clear
6:00 AM 60.8 °F 55.4 °F 82% 29.80 in - South 8.1 mph - N/A   Clear
7:00 AM 66.2 °F 59.0 °F 78% 29.83 in 6.2 mi SW 9.2 mph - N/A   Scattered Clouds
8:00 AM 71 °F 60 °F 61% 29.83 in 6 mi SW 11.5 mph - -   Partly Cloudy
8:00 AM 71.6 °F 60.8 °F 69% 29.86 in 6.2 mi SW 11.5 mph - N/A   Scattered Clouds
9:00 AM 75.2 °F 59.0 °F 57% 29.83 in 6.2 mi West 13.8 mph - N/A   Scattered Clouds
10:00 AM 75.2 °F 59.0 °F 57% 29.83 in 6.2 mi West 18.4 mph - N/A   Scattered Clouds
11:00 AM 75.2 °F 57.2 °F 53% 29.86 in 6.2 mi WSW 19.6 mph - N/A   Scattered Clouds
12:00 PM 75.2 °F 57.2 °F 53% 29.86 in 6.2 mi WSW 19.6 mph - N/A   Scattered Clouds
1:00 PM 75.2 °F 57.2 °F 53% 29.86 in 6.2 mi West 17.3 mph - N/A   Scattered Clouds
2:00 PM 75 °F 57 °F 44% 29.86 in 6 mi WNW 18.4 mph - -   Scattered Clouds
2:00 PM 75.2 °F 57.2 °F 53% 29.86 in 6.2 mi WNW 18.4 mph - N/A   Partly Cloudy
3:00 PM 75.2 °F 59.0 °F 57% 29.83 in 6.2 mi West 16.1 mph - N/A   Partly Cloudy
4:00 PM 75.2 °F 60.8 °F 61% 29.83 in - WNW 16.1 mph - N/A   Clear
5:00 PM 73.4 °F 59.0 °F 61% 29.83 in - NW 13.8 mph - N/A   Clear
6:00 PM 71.6 °F 57.2 °F 60% 29.83 in - WNW 12.7 mph - N/A   Clear
7:00 PM 69.8 °F 59.0 °F 68% 29.83 in - WNW 12.7 mph - N/A   Clear
8:00 PM 69 °F 60 °F 67% 29.84 in 6 mi WNW 12.7 mph - -  
8:00 PM 69.8 °F 60.8 °F 73% 29.83 in - WNW 12.7 mph - N/A   Clear
9:00 PM 68.0 °F 60.8 °F 78% 29.83 in 6.2 mi WNW 13.8 mph - N/A   Partly Cloudy
10:00 PM 68.0 °F 59.0 °F 73% 29.83 in 6.2 mi WNW 15.0 mph - N/A   Partly Cloudy
11:00 PM 68.0 °F 57.2 °F 68% 29.83 in 6.2 mi WNW 8.1 mph - N/A   Partly Cloudy